Weather History for Jacksonville Craig, FL

Change the Weather History Date:

Wednesday, May 29, 2013

  Actual Average Record
Temperature  
Mean Temperature 78 °F -  
Max Temperature 84 °F 85 °F 95 °F (2004)
Min Temperature 71 °F 67 °F 60 °F (2003)
Cooling Degree Days 12    
Growing Degree Days 28 (Base 50)    
Moisture  
Dew Point 69 °F    
Average Humidity 72    
Maximum Humidity 84    
Minimum Humidity 61    
Precipitation  
Precipitation 0.00 in - - ()
Sea Level Pressure  
Sea Level Pressure 30.16 in    
Wind  
Wind Speed 8 mph (ESE)    
Max Wind Speed 15 mph    
Max Gust Speed 24 mph    
Visibility 10 miles    
Events      
Averages and records for this station are not official NWS values.
T = Trace of Precipitation, MM = Missing Value Source: NWS Daily Summary

Daily Weather History Graph

Daily Weather History Graph

Search for Another Location

Airport:

Trip Planner

Search our weather history database for the weather conditions in past years. The results will help you decide how hot, cold, wet, or windy it might be!

Date:

Astronomy

May. 29, 2013 Rise Set
Actual Time 6:25 AM EDT 8:21 PM EDT
Civil Twilight 5:58 AM EDT 8:48 PM EDT
Nautical Twilight 5:25 AM EDT 9:21 PM EDT
Astronomical Twilight 4:50 AM EDT 9:56 PM EDT
Moon No Moon Rise 11:12 AM EDT
Length of Visible Light 14h 50m
Length of Day
13h 56m
Waning Gibbous, 73% of the Moon is Illuminated
May 29
Waning Gibbous
May 31
Last Quarter
Jun 8
New
Jun 16
First Quarter
Jun 23
Full

Hourly Weather History & Observations

Time (EDT) Temp. Heat Index Dew Point Humidity Pressure Visibility Wind Dir Wind Speed Gust Speed Precip Events Conditions
12:53 AM 75.0 °F - 66.0 °F 73% 30.16 in 10.0 mi ESE 3.5 mph - N/A   Clear
1:53 AM 73.9 °F - 66.9 °F 79% 30.14 in 10.0 mi SE 5.8 mph - N/A   Clear
2:53 AM 73.9 °F - 66.0 °F 76% 30.13 in 10.0 mi ESE 3.5 mph - N/A   Clear
3:53 AM 72.0 °F - 66.0 °F 81% 30.12 in 10.0 mi Calm Calm - N/A   Mostly Cloudy
4:51 AM 71.6 °F - 66.2 °F 83% 30.12 in 10.0 mi East 4.6 mph - N/A   Scattered Clouds
4:53 AM 72.0 °F - 66.9 °F 84% 30.12 in 10.0 mi East 4.6 mph - N/A   Partly Cloudy
5:18 AM 73.4 °F - 66.2 °F 78% 30.12 in 10.0 mi ESE 4.6 mph - N/A   Mostly Cloudy
5:28 AM 73.4 °F - 68.0 °F 83% 30.12 in 10.0 mi ESE 4.6 mph - N/A   Mostly Cloudy
5:53 AM 75.0 °F - 66.9 °F 76% 30.12 in 10.0 mi ESE 5.8 mph - N/A   Scattered Clouds
6:53 AM 73.9 °F - 68.0 °F 82% 30.14 in 10.0 mi East 3.5 mph - N/A   Partly Cloudy
7:24 AM 75.2 °F - 69.8 °F 83% 30.16 in 10.0 mi East 3.5 mph - N/A   Mostly Cloudy
7:53 AM 77.0 °F - 69.1 °F 76% 30.17 in 10.0 mi East 6.9 mph - N/A   Mostly Cloudy
8:07 AM 78.8 °F - 69.8 °F 74% 30.17 in 10.0 mi East 10.4 mph - N/A   Mostly Cloudy
8:51 AM 80.6 °F 83.9 °F 69.8 °F 70% 30.18 in 10.0 mi East 15.0 mph - N/A   Mostly Cloudy
8:53 AM 80.1 °F 82.9 °F 69.1 °F 69% 30.18 in 10.0 mi East 13.8 mph - N/A   Mostly Cloudy
9:03 AM 80.6 °F 83.9 °F 69.8 °F 70% 30.18 in 10.0 mi SE 10.4 mph 18.4 mph N/A   Mostly Cloudy
9:53 AM 80.1 °F 82.9 °F 69.1 °F 69% 30.19 in 10.0 mi ESE 9.2 mph - N/A   Overcast
10:53 AM 81.0 °F 84.1 °F 69.1 °F 67% 30.19 in 10.0 mi SE 12.7 mph 19.6 mph N/A   Overcast
11:04 AM 82.4 °F 86.3 °F 69.8 °F 66% 30.19 in 10.0 mi SE 13.8 mph 20.7 mph N/A   Overcast
11:53 AM 82.9 °F 86.5 °F 69.1 °F 63% 30.19 in 10.0 mi ESE 13.8 mph 20.7 mph N/A   Mostly Cloudy
12:14 PM 84.2 °F 88.4 °F 69.8 °F 62% 30.19 in 10.0 mi ESE 9.2 mph 19.6 mph N/A   Mostly Cloudy
12:53 PM 84.0 °F 87.8 °F 69.1 °F 61% 30.19 in 10.0 mi ESE 10.4 mph - N/A   Mostly Cloudy
1:03 PM 84.2 °F 88.4 °F 69.8 °F 62% 30.19 in 10.0 mi East 12.7 mph 19.6 mph N/A   Mostly Cloudy
1:29 PM 84.2 °F 88.4 °F 69.8 °F 62% 30.18 in 10.0 mi ESE 15.0 mph 23.0 mph N/A   Mostly Cloudy
1:53 PM 84.0 °F 87.8 °F 69.1 °F 61% 30.18 in 10.0 mi ESE 12.7 mph 21.9 mph N/A   Mostly Cloudy
2:07 PM 84.2 °F 88.4 °F 69.8 °F 62% 30.17 in 10.0 mi East 13.8 mph 19.6 mph N/A   Mostly Cloudy
2:27 PM 84.2 °F 88.4 °F 69.8 °F 62% 30.17 in 10.0 mi ESE 11.5 mph 21.9 mph N/A   Mostly Cloudy
2:53 PM 82.0 °F 85.5 °F 69.1 °F 65% 30.17 in 10.0 mi ESE 13.8 mph 21.9 mph N/A   Mostly Cloudy
3:53 PM 82.0 °F 85.9 °F 70.0 °F 67% 30.15 in 10.0 mi East 13.8 mph 23.0 mph N/A   Mostly Cloudy
4:28 PM 84.2 °F 88.4 °F 69.8 °F 62% 30.15 in 10.0 mi SE 12.7 mph 20.7 mph N/A   Mostly Cloudy
4:53 PM 82.9 °F 87.0 °F 70.0 °F 65% 30.14 in 10.0 mi ESE 11.5 mph 24.2 mph N/A   Mostly Cloudy
5:53 PM 82.0 °F 86.3 °F 71.1 °F 69% 30.14 in 10.0 mi East 13.8 mph 20.7 mph N/A   Mostly Cloudy
6:53 PM 81.0 °F 84.9 °F 71.1 °F 72% 30.14 in 10.0 mi East 12.7 mph 17.3 mph N/A   Mostly Cloudy
7:20 PM 80.6 °F 84.6 °F 71.6 °F 74% 30.14 in 10.0 mi East 11.5 mph 20.7 mph N/A   Mostly Cloudy
7:27 PM 80.6 °F 83.9 °F 69.8 °F 70% 30.14 in 10.0 mi ESE 11.5 mph 19.6 mph N/A   Mostly Cloudy
7:53 PM 79.0 °F - 71.1 °F 77% 30.14 in 10.0 mi East 8.1 mph - N/A   Mostly Cloudy
8:04 PM 78.8 °F - 71.6 °F 78% 30.14 in 10.0 mi ESE 12.7 mph 19.6 mph N/A   Scattered Clouds
8:53 PM 79.0 °F - 71.1 °F 77% 30.14 in 10.0 mi ESE 9.2 mph - N/A   Mostly Cloudy
9:53 PM 78.1 °F - 71.1 °F 79% 30.16 in 10.0 mi ESE 8.1 mph - N/A   Mostly Cloudy
10:00 PM 78.8 °F - 71.6 °F 78% 30.16 in 10.0 mi ESE 5.8 mph - N/A   Scattered Clouds
10:53 PM 78.1 °F - 71.1 °F 79% 30.17 in 10.0 mi ESE 6.9 mph - N/A   Partly Cloudy
11:53 PM 77.0 °F - 71.1 °F 82% 30.16 in 10.0 mi ESE 5.8 mph - N/A   Partly Cloudy